BREEZE-M DEB

基本信息
目录编号:
38612
目录名称:
BREEZE-M DEB
国际标识:
2008-011BK
轨道中心:
EARTH
物体状态:
在轨
发射日期:
2008-03-14 UTC
轨道信息
数据来源: 国际轨道数据
星历时间: 2026-07-13T14:16:06+0800
半长轴: 20217.618km
偏心率: 0.6394913
轨道倾角: 48.077°
近地点辐角: 297.298°
升交点赤经: 39.566°
平近点角: 334.183°
近地点: 910.49km
远地点: 26768.472km
周期: 476.820分钟
每日圈数: 3.020006
详细信息
发射场:
TTMTR
轨道高度:
LEO
数据来源:
AOE Integration Group
参考系:
TEME
时间系统:
UTC
历元类型:
SGP4
2D轨道图
3D轨道图
轨道高度分析图
轨道倾角分析图
轨道综合分析图
查看轨道综合分析图